FW9243 Weather Reports


Display with metric or nautical units.
time (UTC)temp
F
wind
direction
speed
MPH
gust
MPH
rain 1hr
in
rain 24hr
in
rain mn
in
humidity
%
barometer
mb
20260502170203 56 1 3.0 4.0 0.07 0.14 0.14 93 1014.5
20260502164204 57 1 3.0 4.0 0.04 0.08 0.09 92 1014.5
20260502163703 57 1 4.0 4.0 0.05 0.08 0.09 92 1014.2
20260502163202 57 1 4.0 4.0 0.06 0.08 0.09 92 1014.2
20260502163040 56 9 3.0 4.0 0.00 0.00 0.00 100 1014.7
20260502162704 57 1 3.0 4.0 0.07 0.08 0.09 92 1014.2
20260502162134 57 1 3.0 4.0 0.08 0.08 0.08 92 1014.3
20260502161631 57 1 3.0 4.0 0.08 0.08 0.08 92 1014.3
20260502161535 57 9 3.0 4.0 0.00 0.00 0.00 100 1014.8
20260502161132 57 1 3.0 4.0 0.08 0.08 0.08 92 1014.2
20260502160849 57 1 3.0 4.0 0.08 0.08 0.08 92 1014.2
20260502160131 57 1 3.0 4.0 0.08 0.08 0.08 92 1014.2
20260502152131 58 89 2.0 4.0 0.00 0.00 0.00 88 1014.7
20260502151629 58 269 1.0 5.0 0.00 0.00 0.00 87 1014.8
20260502151541 58 319 1.0 5.0 0.00 0.00 0.00 100 1015.2
20260502151130 59 1 3.0 7.0 0.00 0.00 0.00 87 1014.6
20260502150629 59 1 2.0 7.0 0.00 0.00 0.00 86 1014.5
20260502150130 60 314 2.0 6.0 0.00 0.00 0.00 85 1014.6
20260502140129 60 42 2.0 6.0 0.00 0.00 0.00 81 1015.0
20260502130128 65 230 2.0 3.0 0.00 0.00 0.00 66 1014.9
20260502123626 64 206 1.0 2.0 0.00 0.00 0.00 72 1015.0
20260502123127 64 206 2.0 2.0 0.00 0.00 0.00 73 1015.0
20260502123038 64 309 1.0 1.0 0.00 0.00 0.00 73 1015.4
20260502122626 64 254 1.0 3.0 0.00 0.00 0.00 72 1015.1
20260502122127 64 206 2.0 4.0 0.00 0.00 0.00 73 1015.0
20260502121626 64 223 1.0 4.0 0.00 0.00 0.00 75 1015.2
20260502121547 64 1.0 1.0 0.00 0.00 0.00 73 1015.7
20260502121126 64 223 1.0 3.0 0.00 0.00 0.00 75 1015.3
20260502120626 64 223 1.0 2.0 0.00 0.00 0.00 75 1015.3
20260502120126 64 28 1.0 2.0 0.00 0.00 0.00 71 1015.4
20260502115625 65 213 1.0 3.0 0.00 0.00 0.00 72 1015.4
20260502115126 65 178 1.0 3.0 0.00 0.00 0.00 71 1015.4
20260502114625 65 206 1.0 3.0 0.00 0.00 0.00 70 1015.4
20260502114541 64 234 1.0 2.0 0.00 0.00 0.00 68 1015.8
20260502114126 64 223 1.0 3.0 0.00 0.00 0.00 69 1015.4
20260502113625 64 206 1.0 3.0 0.00 0.00 0.00 69 1015.4
20260502113126 64 152 1.0 3.0 0.00 0.00 0.00 69 1015.4
20260502113039 64 9 1.0 2.0 0.00 0.00 0.00 68 1015.9
20260502112626 64 223 1.0 2.0 0.00 0.00 0.00 68 1015.5
20260502112125 64 206 1.0 3.0 0.00 0.00 0.00 68 1015.5
20260502111624 64 286 2.0 3.0 0.00 0.00 0.00 69 1015.6
20260502111536 63 342 1.0 3.0 0.00 0.00 0.00 69 1015.9
20260502111125 64 206 2.0 3.0 0.00 0.00 0.00 68 1015.6
20260502110624 64 213 1.0 3.0 0.00 0.00 0.00 70 1015.5
20260502110126 64 210 2.0 3.0 0.00 0.00 0.00 71 1015.5
20260502110040 63 239 1.0 3.0 0.00 0.00 0.00 72 1015.9
20260502105624 64 16 2.0 4.0 0.00 0.00 0.00 73 1015.5
20260502105125 64 1 1.0 5.0 0.00 0.00 0.00 71 1015.6
20260502104624 63 8 3.0 5.0 0.00 0.00 0.00 72 1015.6
20260502104540 62 51 1.0 2.0 0.00 0.00 0.00 75 1016.0
20260502104125 63 197 2.0 3.0 0.00 0.00 0.00 75 1015.7
20260502103623 62 1 1.0 3.0 0.00 0.00 0.00 76 1015.8
20260502103124 62 1 2.0 3.0 0.00 0.00 0.00 75 1015.8
20260502103043 62 325 2.0 2.0 0.00 0.00 0.00 75 1016.3
20260502102623 62 206 1.0 2.0 0.00 0.00 0.00 75 1015.9
20260502102126 62 314 1.0 4.0 0.00 0.00 0.00 76 1015.9
20260502101837 62 8 1.0 3.0 0.00 0.00 0.00 76 1016.0
20260502101623 62 45 0.0 4.0 0.00 0.00 0.00 76 1016.0
20260502101545 62 0 1.0 2.0 0.00 0.00 0.00 78 1016.4
20260502100845 62 1 1.0 3.0 0.00 0.00 0.00 76 1016.0
20260502100124 62 331 2.0 4.0 0.00 0.00 0.00 78 1016.0
20260502091123 58 16 1.0 3.0 0.00 0.00 0.00 87 1016.3
20260502090622 57 45 1.0 3.0 0.00 0.00 0.00 89 1016.3
20260502090123 57 178 1.0 2.0 0.00 0.00 0.00 91 1016.3
20260502071120 53 45 1.0 2.0 0.00 0.00 0.00 92 1016.4
20260502070619 52 178 1.0 2.0 0.00 0.00 0.00 92 1016.3
20260502070121 52 117 1.0 2.0 0.00 0.00 0.00 92 1016.4
20260502070106 52 109 1.0 2.0 0.00 0.00 0.00 92 1016.4
20260502070040 52 137 1.0 1.0 0.00 0.00 0.00 100 1016.8
20260502065119 52 45 1.0 2.0 0.00 0.00 0.00 92 1016.4
20260502065106 52 178 0.0 2.0 0.00 0.00 0.00 92 1016.3
20260502064540 52 162 1.0 2.0 0.00 0.00 0.00 100 1016.8
20260502064118 52 152 1.0 2.0 0.00 0.00 0.00 92 1016.3
20260502063618 52 63 2.0 2.0 0.00 0.00 0.00 93 1016.3
20260502063119 52 45 1.0 2.0 0.00 0.00 0.00 93 1016.3
20260502063036 51 61 1.0 2.0 0.00 0.00 0.00 100 1016.8
20260502062618 52 28 1.0 2.0 0.00 0.00 0.00 93 1016.4
20260502062335 52 79 1.0 2.0 0.00 0.00 0.00 93 1016.4
20260502061618 51 45 1.0 2.0 0.00 0.00 0.00 93 1016.5
20260502061543 51 9 0.0 1.0 0.00 0.00 0.00 100 1016.8
20260502061118 51 314 1.0 1.0 0.00 0.00 0.00 93 1016.4
20260502060617 51 45 1.0 1.0 0.00 0.00 0.00 92 1016.4
20260502060118 51 1 0.0 1.0 0.00 0.00 0.00 92 1016.3
20260502060039 51 0 1.0 1.0 0.00 0.00 0.00 100 1016.7
20260502055617 51 269 0.0 1.0 0.00 0.00 0.00 92 1016.3
20260502055117 51 206 0.0 1.0 0.00 0.00 0.00 92 1016.2
20260502054617 51 161 0.0 1.0 0.00 0.00 0.00 92 1016.2
20260502054543 51 61 0.0 2.0 0.00 0.00 0.00 100 1016.6
20260502054341 51 89 1.0 1.0 0.00 0.00 0.00 92 1016.2
20260502053836 51 290 0.0 2.0 0.00 0.00 0.00 92 1016.3
20260502053116 51 152 1.0 2.0 0.00 0.00 0.00 91 1016.2
20260502053038 51 0 0.0 1.0 0.00 0.00 0.00 100 1016.6
20260502052617 51 152 0.0 1.0 0.00 0.00 0.00 91 1016.2
20260502052116 51 45 0.0 1.0 0.00 0.00 0.00 91 1016.2
20260502051840 51 1 0.0 1.0 0.00 0.00 0.00 91 1016.1
20260502051554 51 223 0.0 2.0 0.00 0.00 0.00 91 1016.1
20260502051544 51 0 0.0 1.0 0.00 0.00 0.00 100 1016.6
20260502050621 52 223 1.0 2.0 0.00 0.00 0.00 91 1016.1
20260502050116 52 250 1.0 1.0 0.00 0.00 0.00 91 1016.1
20260502050038 52 232 1.0 2.0 0.00 0.00 0.00 100 1016.4
20260502045616 52 45 1.0 2.0 0.00 0.00 0.00 92 1015.9
20260502045342 52 178 0.0 2.0 0.00 0.00 0.00 92 1015.9
20260502044616 52 161 1.0 2.0 0.00 0.00 0.00 91 1015.8
20260502044540 51 162 1.0 1.0 0.00 0.00 0.00 100 1016.3
20260502044116 52 178 0.0 1.0 0.00 0.00 0.00 91 1015.9
20260502043616 52 45 0.0 1.0 0.00 0.00 0.00 91 1015.8
20260502043115 52 135 0.0 1.0 0.00 0.00 0.00 91 1015.8
20260502043039 51 0 0.0 1.0 0.00 0.00 0.00 100 1016.2
20260502042616 52 135 0.0 2.0 0.00 0.00 0.00 91 1015.8
20260502042116 52 178 0.0 2.0 0.00 0.00 0.00 91 1015.9
20260502041615 52 45 1.0 1.0 0.00 0.00 0.00 91 1015.9
20260502041602 51 93 0.0 1.0 0.00 0.00 0.00 100 1016.4
20260502041116 52 45 0.0 1.0 0.00 0.00 0.00 91 1015.9
20260502040615 52 178 1.0 1.0 0.00 0.00 0.00 91 1016.0
20260502040604 52 45 0.0 1.0 0.00 0.00 0.00 91 1015.9
20260502040043 52 0 0.0 1.0 0.00 0.00 0.00 100 1016.5
20260502035615 52 223 0.0 2.0 0.00 0.00 0.00 91 1016.1
20260502035115 52 142 1.0 2.0 0.00 0.00 0.00 90 1016.0
20260502034614 52 152 0.0 1.0 0.00 0.00 0.00 90 1016.1
20260502034536 52 51 0.0 1.0 0.00 0.00 0.00 100 1016.5
20260502034114 52 45 0.0 1.0 0.00 0.00 0.00 90 1016.1
20260502033615 52 20 0.0 1.0 0.00 0.00 0.00 90 1016.1
20260502033115 52 28 0.0 2.0 0.00 0.00 0.00 90 1016.2
20260502033050 52 265 1.0 1.0 0.00 0.00 0.00 100 1016.7
20260502032615 52 178 1.0 2.0 0.00 0.00 0.00 90 1016.3
20260502032333 53 45 0.0 1.0 0.00 0.00 0.00 90 1016.2
20260502031614 53 109 1.0 3.0 0.00 0.00 0.00 91 1016.1
20260502031539 52 137 0.0 1.0 0.00 0.00 0.00 100 1016.6
20260502031114 53 157 1.0 3.0 0.00 0.00 0.00 90 1016.1
20260502030614 53 135 0.0 1.0 0.00 0.00 0.00 90 1016.2
20260502030335 53 178 0.0 1.0 0.00 0.00 0.00 90 1016.3
20260502030040 52 0 0.0 1.0 0.00 0.00 0.00 100 1016.7
20260502025613 53 145 0.0 1.0 0.00 0.00 0.00 90 1016.4
20260502025114 53 109 1.0 1.0 0.00 0.00 0.00 89 1016.4
20260502024841 53 89 0.0 1.0 0.00 0.00 0.00 89 1016.5
20260502024537 53 0 0.0 1.0 0.00 0.00 0.00 100 1017.0
20260502024113 53 45 0.0 1.0 0.00 0.00 0.00 89 1016.5
20260502023613 53 45 0.0 1.0 0.00 0.00 0.00 89 1016.4
20260502023113 53 1 0.0 1.0 0.00 0.00 0.00 90 1016.4
20260502023035 53 0 0.0 0.0 0.00 0.00 0.00 100 1016.9
20260502022613 53 241 0.0 3.0 0.00 0.00 0.00 90 1016.5
20260502022113 53 63 1.0 3.0 0.00 0.00 0.00 90 1016.5
20260502021832 53 157 2.0 2.0 0.00 0.00 0.00 89 1016.6
20260502021546 53 137 1.0 1.0 0.00 0.00 0.00 100 1017.1
20260502021112 53 152 1.0 2.0 0.00 0.00 0.00 89 1016.6
20260502020612 53 178 0.0 2.0 0.00 0.00 0.00 89 1016.7
20260502020112 54 117 0.0 1.0 0.00 0.00 0.00 89 1016.7
20260502020040 53 0.0 0.0 0.00 0.00 0.00 100 1017.2
20260502015832 54 135 0.0 1.0 0.00 0.00 0.00 89 1016.7
20260502015112 54 45 0.0 1.0 0.00 0.00 0.00 89 1016.8
20260502014611 54 152 0.0 1.0 0.00 0.00 0.00 89 1016.7
20260502014539 53 0.0 0.0 0.00 0.00 0.00 100 1017.3
20260502014112 54 269 0.0 2.0 0.00 0.00 0.00 89 1016.8
20260502013612 54 223 0.0 2.0 0.00 0.00 0.00 89 1016.9
20260502013112 54 135 0.0 1.0 0.00 0.00 0.00 88 1017.0
20260502013036 0 0.0 0.0 0.00 0.00 0.00 100 1017.4
20260502012611 54 135 1.0 1.0 0.00 0.00 0.00 88 1016.9
20260502012112 54 152 0.0 1.0 0.00 0.00 0.00 87 1017.0
20260502011611 55 89 1.0 1.0 0.00 0.00 0.00 87 1017.1
20260502011536 0 0.0 0.0 0.00 0.00 0.00 1017.5
20260502011111 55 206 0.0 1.0 0.00 0.00 0.00 87 1017.1
20260502010611 55 223 1.0 2.0 0.00 0.00 0.00 87 1017.1
20260502010111 55 152 0.0 2.0 0.00 0.00 0.00 87 1017.2
20260502010039 55 0 0.0 1.0 0.00 0.00 0.00 100 1017.5
20260502005611 55 241 1.0 2.0 0.00 0.00 0.00 87 1017.2
20260502005111 55 152 1.0 2.0 0.00 0.00 0.00 87 1017.2
20260502004831 55 206 0.0 2.0 0.00 0.00 0.00 86 1017.2
20260502004538 55 0 0.0 1.0 0.00 0.00 0.00 100 1017.6
20260502004111 56 89 0.0 2.0 0.00 0.00 0.00 86 1017.3
20260502003610 56 223 0.0 3.0 0.00 0.00 0.00 86 1017.3
20260502003110 56 178 1.0 3.0 0.00 0.00 0.00 86 1017.3
20260502003038 55 0 0.0 2.0 0.00 0.00 0.00 100 1017.8
20260502002833 56 140 2.0 3.0 0.00 0.00 0.00 86 1017.3
20260502002110 56 145 0.0 2.0 0.00 0.00 0.00 86 1017.4
20260502001610 56 165 1.0 1.0 0.00 0.00 0.00 85 1017.5
20260502001536 56 0 0.0 1.0 0.00 0.00 0.00 100 1017.9
20260502001109 56 152 0.0 1.0 0.00 0.00 0.00 85 1017.5
20260502000610 56 178 0.0 1.0 0.00 0.00 0.00 85 1017.5
20260502000109 57 178 0.0 1.0 0.00 0.00 0.00 85 1017.6
20260502000035 0 0.0 0.0 0.00 0.00 0.00 1018.0
20260501235610 57 135 0.0 1.0 0.00 0.00 0.00 84 1017.7
20260501235109 57 1 0.0 1.0 0.00 0.00 0.00 83 1017.7
20260501234609 57 269 0.0 1.0 0.00 0.00 0.00 83 1017.8
20260501234540 0 0 0.0 0.0 0.00 0.00 0.00 100 1018.4
20260501234335 57 45 0.0 1.0 0.00 0.00 0.00 83 1017.9
20260501233609 57 1 0.0 1.0 0.00 0.00 0.00 83 1018.0
20260501233109 57 45 0.0 1.0 0.00 0.00 0.00 83 1017.9
20260501233038 0 0.0 0.0 0.00 0.00 0.00 1018.3
20260501232608 57 178 0.0 1.0 0.00 0.00 0.00 83 1017.9
20260501232109 58 269 0.0 1.0 0.00 0.00 0.00 83 1018.0
20260501231608 58 241 0.0 1.0 0.00 0.00 0.00 83 1018.0
20260501231551 0 0.0 0.0 0.00 0.00 0.00 1018.5
20260501231109 58 178 0.0 1.0 0.00 0.00 0.00 83 1018.2
20260501230832 58 152 0.0 1.0 0.00 0.00 0.00 83 1018.2
20260501230109 58 89 0.0 1.0 0.00 0.00 0.00 82 1018.2
20260501230036 58 0.0 1.0 0.00 0.00 0.00 100 1018.7
20260501225609 58 152 0.0 1.0 0.00 0.00 0.00 82 1018.3
20260501225107 58 45 0.0 1.0 0.00 0.00 0.00 82 1018.4
20260501224608 58 178 1.0 1.0 0.00 0.00 0.00 81 1018.3
20260501224535 58 0.0 0.0 0.00 0.00 0.00 100 1018.8
20260501224108 58 89 0.0 1.0 0.00 0.00 0.00 81 1018.3
20260501223608 58 241 0.0 2.0 0.00 0.00 0.00 81 1018.4
20260501223108 58 1 0.0 2.0 0.00 0.00 0.00 81 1018.3
20260501223105 58 0.0 1.0 0.00 0.00 0.00 100 1018.8
20260501222608 58 1 1.0 2.0 0.00 0.00 0.00 80 1018.3
20260501222107 58 45 0.0 1.0 0.00 0.00 0.00 80 1018.5
20260501221607 58 45 0.0 1.0 0.00 0.00 0.00 80 1018.6
20260501221538 58 0 0.0 0.0 0.00 0.00 0.00 99 1019.0
20260501221107 59 206 0.0 1.0 0.00 0.00 0.00 80 1018.6
20260501220607 59 178 0.0 1.0 0.00 0.00 0.00 80 1018.6
20260501220333 59 45 0.0 1.0 0.00 0.00 0.00 80 1018.5
20260501220040 0 0 0.0 1.0 0.00 0.00 0.00 79 1018.9
20260501215606 59 1 0.0 1.0 0.00 0.00 0.00 80 1018.5
20260501215551 59 269 0.0 1.0 0.00 0.00 0.00 79 1018.5
20260501214606 59 269 0.0 1.0 0.00 0.00 0.00 79 1018.5
20260501214535 0 0 1.0 1.0 0.00 0.00 0.00 79 1019.0
20260501214106 59 72 1.0 1.0 0.00 0.00 0.00 79 1018.6
20260501213607 59 178 0.0 2.0 0.00 0.00 0.00 78 1018.6
20260501213107 59 45 0.0 2.0 0.00 0.00 0.00 79 1018.8
20260501213037 59 51 0.0 1.0 0.00 0.00 0.00 97 1019.2
20260501212606 59 56 1.0 1.0 0.00 0.00 0.00 79 1018.7
20260501212106 59 178 0.0 1.0 0.00 0.00 0.00 78 1018.9
20260501211606 60 206 0.0 1.0 0.00 0.00 0.00 78 1018.8
20260501211535 59 51 0.0 1.0 0.00 0.00 0.00 97 1019.3
20260501211105 60 72 0.0 1.0 0.00 0.00 0.00 78 1018.8
20260501210826 60 63 1.0 1.0 0.00 0.00 0.00 77 1018.8
20260501210106 60 206 0.0 1.0 0.00 0.00 0.00 77 1018.8
20260501210035 59 0.0 1.0 0.00 0.00 0.00 77 1019.4
20260501205605 60 89 0.0 1.0 0.00 0.00 0.00 77 1018.8
20260501205105 60 178 0.0 1.0 0.00 0.00 0.00 77 1018.8
20260501204605 60 269 0.0 1.0 0.00 0.00 0.00 77 1018.7
20260501204540 59 0.0 0.0 0.00 0.00 0.00 76 1019.1
20260501204324 60 45 0.0 1.0 0.00 0.00 0.00 77 1018.7
20260501203605 60 223 0.0 1.0 0.00 0.00 0.00 77 1018.7
20260501203105 60 45 0.0 1.0 0.00 0.00 0.00 77 1018.7
20260501203033 59 0 0.0 0.0 0.00 0.00 0.00 76 1019.1
20260501202605 60 178 0.0 1.0 0.00 0.00 0.00 76 1018.7
20260501202104 60 45 0.0 1.0 0.00 0.00 0.00 76 1018.7
20260501201604 60 269 0.0 2.0 0.00 0.00 0.00 76 1018.7
20260501201536 59 0 0.0 1.0 0.00 0.00 0.00 95 1019.1
20260501201105 60 45 1.0 2.0 0.00 0.00 0.00 76 1018.7
20260501200604 60 331 1.0 1.0 0.00 0.00 0.00 76 1018.5
20260501200104 60 45 1.0 1.0 0.00 0.00 0.00 76 1018.6
20260501200036 0 51 0.0 1.0 0.00 0.00 0.00 95 1019.1
20260501195604 60 63 0.0 1.0 0.00 0.00 0.00 76 1018.6
20260501195104 60 45 0.0 1.0 0.00 0.00 0.00 76 1018.6
20260501194604 60 45 0.0 1.0 0.00 0.00 0.00 76 1018.5
20260501194540 0 0.0 1.0 0.00 0.00 0.00 95 1019.0
20260501194327 60 45 0.0 1.0 0.00 0.00 0.00 76 1018.4
20260501193604 60 296 0.0 1.0 0.00 0.00 0.00 76 1018.5
20260501193104 60 45 0.0 1.0 0.00 0.00 0.00 76 1018.4
20260501193038 60 0 0.0 0.0 0.00 0.00 0.00 95 1018.9
20260501192604 60 28 0.0 1.0 0.00 0.00 0.00 76 1018.4
20260501192103 60 45 0.0 1.0 0.00 0.00 0.00 76 1018.5
20260501191603 60 28 0.0 2.0 0.00 0.00 0.00 76 1018.4
20260501191538 0 26 1.0 1.0 0.00 0.00 0.00 75 1018.9
20260501191103 60 45 1.0 2.0 0.00 0.00 0.00 76 1018.3
20260501190603 60 20 0.0 2.0 0.00 0.00 0.00 75 1018.3
20260501190033 0 9 2.0 2.0 0.00 0.00 0.00 1018.8
20260501185604 60 269 1.0 2.0 0.00 0.00 0.00 75 1018.3
20260501185103 60 269 1.0 4.0 0.00 0.00 0.00 75 1018.3
20260501184818 61 10 2.0 3.0 0.00 0.00 0.00 75 1018.2
20260501184800 60 1 1.0 4.0 0.00 0.00 0.00 75 1018.3
20260501184536 0 1.0 3.0 0.00 0.00 0.00 1018.7
20260501183603 61 1 1.0 2.0 0.00 0.00 0.00 76 1018.2
20260501183059 61 28 1.0 2.0 0.00 0.00 0.00 76 1018.3
20260501183039 0 1.0 1.0 0.00 0.00 0.00 1018.8
20260501182552 61 28 1.0 3.0 0.00 0.00 0.00 76 1018.2
20260501182045 61 1 1.0 3.0 0.00 0.00 0.00 76 1018.3
20260501181545 61 16 1.0 2.0 0.00 0.00 0.00 75 1018.4
20260501181539 0 0.0 0.0 0.00 0.00 0.00 1018.8
20260501181042 61 206 1.0 3.0 0.00 0.00 0.00 75 1018.4
20260501180543 61 314 2.0 3.0 0.00 0.00 0.00 75 1018.2
20260501180053 0 1.0 3.0 0.00 0.00 0.00 1018.7
20260501180031 61 269 1.0 3.0 0.00 0.00 0.00 75 1018.2
20260501175530 61 269 2.0 5.0 0.00 0.00 0.00 74 1018.1
20260501175031 61 353 2.0 5.0 0.00 0.00 0.00 74 1018.3
20260501174555 62 1.0 1.0 0.00 0.00 0.00 73 1018.7
20260501174530 62 331 2.0 5.0 0.00 0.00 0.00 74 1018.3
20260501174004 62 1 2.0 5.0 0.00 0.00 0.00 74 1018.2
20260501173502 62 1 2.0 5.0 0.00 0.00 0.00 74 1018.1
20260501173043 62 282 2.0 6.0 0.00 0.00 0.00 73 1018.6
20260501173003 62 20 2.0 7.0 0.00 0.00 0.00 74 1018.2
20260501172502 62 329 2.0 7.0 0.00 0.00 0.00 74 1018.2
20260501172003 62 314 2.0 4.0 0.00 0.00 0.00 73 1018.2